Regional Weather Roundup
Issued by NWS

Home | Current Version | Previous Version | Text Only | Print | Product List | Glossary Off
Versions: 1 2 3 4 5 6 7 8 9 10 11 12 13 14 15 16 17 18 19 20 21 22 23 24 25 26 27 28 29 30 31 32 33 34 35 36 37 38 39 40 41 42 43 44 45 46 47 48 49 50

000
ASUS45 KPSR 020110
RWRAZ

ARIZONA HOURLY REGIONAL WEATHER ROUNDUP
NATIONAL WEATHER SERVICE PHOENIX AZ
600 PM MST THU DEC 01 2016

NOTE: FAIR INDICATES FEW OR NO CLOUDS BELOW 12,000 FEET WITH NO
SIGNIFICANT WEATHER AND/OR OBSTRUCTIONS TO VISIBILITY.

AZZ001>003-036-020200-
NORTHWEST ARIZONA

CITY           SKY/WX    TMP DP  RH WIND       PRES   REMARKS
BULLHEAD CITY  CLOUDY    59  23  25 N10       29.91R
KINGMAN        CLOUDY    45  16  31 NE3       29.91S
$$

AZZ004>008-015-016-018-020200-
NORTH CENTRAL ARIZONA

CITY           SKY/WX    TMP DP  RH WIND       PRES   REMARKS
GRAND CANYON   MOCLDY    28  20  71 NE3       29.93S
PRESCOTT       MOCLDY    39  19  44 CALM      29.90F
FLAGSTAFF      MOCLDY    28  16  60 NE3       29.92R
PAYSON         PTCLDY    39  10  30 CALM      29.93S
PAGE           MOCLDY    39  15  37 CALM      29.94R
$$

AZZ009>014-017-020200-
NORTHEAST ARIZONA

CITY           SKY/WX    TMP DP  RH WIND       PRES   REMARKS
WINSLOW        MOCLDY    32  17  54 W6        29.94S WCI  26
SAINT JOHNS    CLOUDY    38  14  37 NE3       29.92S
WINDOW ROCK    CLOUDY    33  18  53 MISG      29.94R
SHOW LOW       CLOUDY    34  16  47 S5        29.93F WCI  30
$$

AZZ023-020200-
GREATER PHOENIX AREA

CITY           SKY/WX    TMP DP  RH WIND       PRES   REMARKS
PHOENIX        PTCLDY    56  26  31 SW6       29.88R
BUCKEYE        PTCLDY    54  25  32 W5        29.91S
GLENDALE       PTCLDY    57  27  30 CALM      29.90S
LUKE AFB       CLEAR     56  30  37 SW7       29.88R
DEER VALLEY    CLEAR     55  21  26 W5        29.88S
SCOTTSDALE     CLEAR     57  25  29 W5        29.90R
MESA-FALCON    PTCLDY   N/A N/A N/A SW6       29.86S
MESA-GATEWAY   PTCLDY    57  21  24 VRB3      29.89S
CHANDLER       CLEAR     57  25  28 W6        29.89R
$$

AZZ027-028-020200-
SOUTHWEST MARICOPA COUNTY AND PINAL COUNTY

CITY           SKY/WX    TMP DP  RH WIND       PRES   REMARKS
CASA GRANDE    NOT AVBL
GILA BEND      CLEAR     56  22  26 W3        29.89S
$$

AZZ503-504-507>509-020200-
SOUTHEAST ARIZONA

CITY           SKY/WX    TMP DP  RH WIND       PRES   REMARKS
TUCSON         MOCLDY    56  18  22 N7        29.90S
DAVIS-MONTHAN  CLOUDY    53  17  24 NW7       29.89R
RYAN FIELD     CLEAR     54  21  28 NW6       29.90S
NOGALES        PTCLDY    51   9  18 SW6       29.90S
SIERRA VISTA   PTCLDY    49  12  22 SW9       29.92R
DOUGLAS        PTCLDY    54  12  18 N3        29.90R
SAFFORD        CLOUDY    54  19  25 NW10      29.86F
$$

AZZ020-021-025-026-031-020200-
SOUTHWEST ARIZONA

CITY           SKY/WX    TMP DP  RH WIND       PRES   REMARKS
YUMA           CLEAR     61  20  20 N6        29.90R
$$

CAZ031-033-041-043-047-048-061-020200-
SOUTHERN CALIFORNIA

CITY           SKY/WX    TMP DP  RH WIND       PRES   REMARKS
DOWNTOWN L.A.  PTCLDY    59  51  75 VRB6      29.92R
L.A. AIRPORT   PTCLDY    59  52  77 W17       29.93R
SAN DIEGO      MOCLDY    60  50  69 SW8       29.95R
BURBANK        PTCLDY    59  40  49 S6        29.91R
ONTARIO        MOCLDY    58  35  42 W5        29.91R
RIVERSIDE      PTCLDY    62  31  31 CALM      29.91R
PALM SPRINGS   MOCLDY    62  23  22 CALM      29.92R
EL CENTRO NAS  CLEAR     62  24  23 SE5       29.91S
IMPERIAL       CLEAR     63  25  23 CALM      29.89S
BLYTHE         MOCLDY    59  26  28 CALM      29.91S
NEEDLES        CLOUDY    60  18  19 CALM      29.91S
$$

NVZ020-UTZ003-020200-
SOUTHERN NEVADA-UTAH

CITY           SKY/WX    TMP DP  RH WIND       PRES   REMARKS
LAS VEGAS      MOCLDY    52  18  26 CALM      29.93S
SALT LAKE CITY CLOUDY    34  28  79 W6        30.08R WCI  29
$$

NMZ009-TXZ055-020200-
NEW MEXICO-WEST TEXAS

CITY           SKY/WX    TMP DP  RH WIND       PRES   REMARKS
ALBUQUERQUE    CLOUDY    41  11  29 CALM      29.97R
EL PASO        PTCLDY    54  23  30 CALM      29.91R
$$


........................KEY........................
SKY/WX - SKY CONDITION/WEATHER
TMP    - TEMPERATURE IN FAHRENHEIT
DP     - DEW POINT IN FAHRENHEIT
RH     - RELATIVE HUMIDITY IN PERCENT
WIND   - DIRECTION AND SPEED IN MILES PER HOUR (MPH)
VRB    - VARIABLE WIND DIRECTION
PRES   - MEAN SEA LEVEL PRESSURE IN INCHES OF MERCURY
         F - FALLING PRESSURE   R - RISING PRESSURE
         S - STEADY PRESSURE
VSB    - VISIBILITY IN MILES
HX     - HEAT INDEX IN FAHRENHEIT
WCI    - WIND CHILL INDEX IN FAHRENHEIT
TC     - TEMPERATURE IN CELSIUS WHICH IS ALSO KNOWN AS
         TEMPERATURE IN CENTIGRADE
AFB    - AIR FORCE BASE
         LUKE AFB IS LUKE AIR FORCE BASE
         DAVIS-MONTHAN IS DAVIS-MONTHAN AIR FORCE BASE
NAS    - NAVAL AIR STATION
         EL CENTRO NAS IS EL CENTRO NAVAL AIR STATION
N/A    - NOT AVAILABLE




USA.gov is the U.S. government's official web portal to all federal, state and local government web resources and services.